Durango, CO

8:03 AM MDT on March 25, 2017 (GMT -0600)
Durango-La Plata County

Weather History for KDRO - June, 2012

Change the Weather History Date:

Wednesday, June 20, 2012

  Actual Average Record
Temperature  
Mean Temperature 67 °F 63 °F  
Max Temperature 91 °F 83 °F 96 °F (2016)
Min Temperature 42 °F 44 °F 33 °F (1973)
Degree Days  
Heating Degree Days 0 3  
Month to date heating degree days 25 99  
Since 1 June heating degree days 25 99  
Since 1 July heating degree days 6492 7107  
Cooling Degree Days 2 1  
Month to date cooling degree days 11 13  
Year to date cooling degree days 11 14  
Since 1 June cooling degree days 11 13  
Growing Degree Days 18 (Base 50)    
Moisture  
Dew Point 16 °F    
Average Humidity 23    
Maximum Humidity 40    
Minimum Humidity 5    
Precipitation  
Precipitation 0.00 in 0.03 in 0.12 in (1982)
Month to date precipitation T 0.33  
Year to date precipitation 2.68 5.76  
Sea Level Pressure  
Sea Level Pressure 29.76 in    
Wind  
Wind Speed 9 mph (West)    
Max Wind Speed 26 mph    
Max Gust Speed 37 mph    
Visibility 10 miles    
Events      
T = Trace of Precipitation, MM = Missing Value Source: NWS Daily Summary

Daily Weather History Graph

Daily Weather History Graph

Search for Another Location

Airport or City:

Trip Planner

Search our weather history database for the weather conditions in past years. The results will help you decide how hot, cold, wet, or windy it might be!

Date:

Astronomy

Jun. 20, 2012 Rise Set
Actual Time 5:51 AM MDT 8:34 PM MDT
Civil Twilight 5:20 AM MDT 9:05 PM MDT
Nautical Twilight 4:41 AM MDT 9:43 PM MDT
Astronomical Twilight 3:57 AM MDT 10:27 PM MDT
Moon 6:52 AM MDT (6/20) 9:24 PM MDT (6/20)
Length of Visible Light 15h 45m
Length of Day
14h 43m
New Moon, 1% of the Moon is Illuminated
Jun 20
New Moon
Jun 26
First Quarter
Jul 3
Full
Jul 10
Last Quarter
Jul 18
New

Hourly Weather History & Observations

Time (MDT) Temp. Windchill Dew Point Humidity Pressure Visibility Wind Dir Wind Speed Gust Speed Precip Events Conditions
12:53 AM 57.9 °F - 24.1 °F 27% 29.68 in 10.0 mi NNW 4.6 mph - N/A   Clear
1:53 AM 48.0 °F - 21.9 °F 36% 29.72 in 10.0 mi NE 5.8 mph - N/A   Clear
2:53 AM 53.1 °F - 24.1 °F 32% 29.69 in 10.0 mi Calm Calm - N/A   Clear
3:53 AM 48.0 °F - 21.9 °F 36% 29.72 in 10.0 mi Calm Calm - N/A   Clear
4:53 AM 48.0 °F - 23.0 °F 37% 29.73 in 10.0 mi Calm Calm - N/A   Clear
5:53 AM 44.1 °F 40.8 °F 21.0 °F 40% 29.77 in 10.0 mi ENE 5.8 mph - N/A   Clear
6:53 AM 50.0 °F - 25.0 °F 38% 29.78 in 10.0 mi NE 4.6 mph - N/A   Clear
7:53 AM 59.0 °F - 26.1 °F 28% 29.77 in 10.0 mi Calm Calm - N/A   Clear
8:53 AM 66.9 °F - 21.0 °F 17% 29.76 in 10.0 mi Calm Calm - N/A   Clear
9:53 AM 73.0 °F - 19.0 °F 13% 29.76 in 10.0 mi Calm Calm - N/A   Clear
11:53 AM 84.9 °F - 12.9 °F 7% 29.76 in 10.0 mi SSW 11.5 mph 17.3 mph N/A   Clear
12:53 PM 88.0 °F - 14.0 °F 6% 29.75 in 10.0 mi WSW 19.6 mph 29.9 mph N/A   Clear
1:53 PM 90.0 °F - 14.0 °F 6% 29.76 in 10.0 mi West 23.0 mph 32.2 mph N/A   Clear
2:53 PM 91.0 °F - 12.9 °F 6% 29.74 in 10.0 mi WSW 20.7 mph 33.4 mph N/A   Clear
3:53 PM 90.0 °F - 15.1 °F 6% 29.75 in 10.0 mi West 17.3 mph 27.6 mph N/A   Clear
4:53 PM 89.1 °F - 12.9 °F 6% 29.76 in 10.0 mi West 18.4 mph 28.8 mph N/A   Clear
5:53 PM 88.0 °F - 10.9 °F 6% 29.79 in 10.0 mi West 21.9 mph 28.8 mph N/A   Clear
6:53 PM 84.9 °F - 10.0 °F 6% 29.79 in 10.0 mi WNW 13.8 mph 25.3 mph N/A   Clear
7:53 PM 82.0 °F - 7.0 °F 6% 29.78 in 10.0 mi West 19.6 mph 25.3 mph N/A   Clear
8:53 PM 75.0 °F - 8.1 °F 8% 29.81 in 10.0 mi WSW 10.4 mph - N/A   Clear
9:53 PM 72.0 °F - 7.0 °F 8% 29.82 in 10.0 mi Variable 3.5 mph - N/A   Clear
10:53 PM 71.1 °F - 7.0 °F 8% 29.82 in 10.0 mi Variable 4.6 mph - N/A   Clear
11:53 PM 66.9 °F - 12.0 °F 12% 29.83 in 10.0 mi WSW 4.6 mph - N/A   Clear